FW0270 Weather Reports


Display with metric or nautical units.
time (UTC)temp
F
wind
direction
speed
MPH
gust
MPH
rain 1hr
in
rain 24hr
in
rain mn
in
humidity
%
barometer
mb
20260510030053 51 1 0.0 3.0 0.00 0.00 0.00 43 1013.8
20260510024549 52 5 1.0 5.0 0.00 0.00 0.00 41 1013.5
20260510023040 53 23 1.0 4.0 0.00 0.00 0.00 41 1013.2
20260510021539 54 359 0.0 3.0 0.00 0.00 0.00 40 1012.8
20260510020035 55 354 0.0 3.0 0.00 0.00 0.00 38 1012.4
20260510014533 57 16 0.0 4.0 0.00 0.00 0.00 37 1012.0
20260510013030 58 23 1.0 6.0 0.00 0.00 0.00 36 1011.7
20260510011528 59 32 4.0 8.0 0.00 0.00 0.00 34 1011.4
20260510010025 61 35 3.0 7.0 0.00 0.00 0.00 33 1010.9
20260510004524 62 23 5.0 11.0 0.00 0.00 0.00 32 1010.6
20260510003021 63 26 4.0 12.0 0.00 0.00 0.00 31 1010.5
20260510001519 63 11 6.0 13.0 0.00 0.00 0.00 30 1010.3
20260510000017 64 4 6.0 12.0 0.00 0.00 0.00 31 1010.0
20260509234529 65 320 6.0 12.0 0.00 0.00 0.00 30 1010.1
20260509233029 65 46 6.0 13.0 0.00 0.00 0.00 30 1009.7
20260509231513 65 356 7.0 12.0 0.00 0.00 0.00 30 1009.4
20260509230011 66 25 5.0 13.0 0.00 0.00 0.00 32 1009.3
20260509224513 67 343 5.0 15.0 0.00 0.00 0.00 30 1009.3
20260509223006 67 323 9.0 16.0 0.00 0.00 0.00 29 1008.9
20260509221505 68 37 8.0 16.0 0.00 0.00 0.00 30 1008.7
20260509220005 68 34 11.0 17.0 0.00 0.00 0.00 31 1008.5
20260509214502 68 355 10.0 16.0 0.00 0.00 0.00 32 1008.3
20260509213100 68 317 6.0 16.0 0.00 0.00 0.00 35 1008.1
20260509211602 69 333 7.0 19.0 0.00 0.00 0.00 36 1008.1
20260509210110 69 23 9.0 16.0 0.00 0.00 0.00 33 1008.1
20260509204556 70 34 8.0 17.0 0.00 0.00 0.00 34 1008.0
20260509203056 69 343 6.0 19.0 0.00 0.00 0.00 35 1007.8
20260509201600 70 54 10.0 17.0 0.00 0.00 0.00 34 1007.8
20260509194551 70 281 9.0 17.0 0.00 0.00 0.00 36 1007.4
20260509193053 70 337 8.0 17.0 0.00 0.00 0.00 37 1007.1
20260509191546 70 297 6.0 20.0 0.00 0.00 0.00 39 1007.0
20260509190049 70 316 8.0 16.0 0.00 0.00 0.00 40 1007.0
20260509184546 70 44 5.0 17.0 0.00 0.00 0.00 43 1006.8
20260509183042 69 262 6.0 13.0 0.00 0.00 0.00 47 1006.9
20260509181540 69 300 4.0 12.0 0.00 0.00 0.00 51 1006.9
20260509180039 68 304 6.0 12.0 0.00 0.00 0.00 49 1006.9
20260509174537 67 306 4.0 14.0 0.00 0.00 0.00 51 1006.9
20260509173031 65 96 8.0 17.0 0.00 0.00 0.00 53 1006.9
20260509171536 65 4 6.0 14.0 0.00 0.00 0.00 51 1006.9
20260509170009 65 345 10.0 18.0 0.00 0.00 0.00 50 1006.7
20260509164506 65 304 6.0 14.0 0.00 0.00 0.00 50 1006.8
20260509163005 65 348 4.0 9.0 0.00 0.00 0.00 49 1006.9
20260509161509 65 278 3.0 12.0 0.00 0.00 0.00 50 1007.0
20260509160003 63 290 5.0 12.0 0.00 0.00 0.00 48 1007.1
20260509154617 63 4 6.0 13.0 0.00 0.00 0.00 45 1006.8
20260509153059 64 16 2.0 12.0 0.00 0.00 0.00 44 1006.4
20260509151605 64 299 3.0 8.0 0.00 0.00 0.00 45 1006.2
20260509150110 63 295 2.0 11.0 0.00 0.00 0.00 44 1006.2
20260509144601 62 281 3.0 9.0 0.00 0.00 0.00 45 1006.3
20260509143104 63 308 4.0 8.0 0.00 0.00 0.00 43 1006.1
20260509141554 62 324 2.0 6.0 0.00 0.00 0.00 44 1006.2
20260509130053 55 248 0.0 4.0 0.00 0.00 0.00 60 1005.3
20260509124554 52 242 0.0 2.0 0.00 0.00 0.00 67 1005.2
20260509123045 50 240 0.0 1.0 0.00 0.00 0.00 70 1005.1
20260509121554 47 243 0.0 2.0 0.00 0.00 0.00 74 1005.0
20260509120043 43 231 0.0 2.0 0.00 0.00 0.00 83 1004.6
20260509114555 41 250 0.0 0.0 0.00 0.00 0.00 84 1004.6
20260509113040 40 250 0.0 0.0 0.00 0.00 0.00 87 1004.4
20260509111539 40 250 0.0 0.0 0.00 0.00 0.00 87 1004.1
20260509110037 40 250 0.0 0.0 0.00 0.00 0.00 88 1004.5
20260509104538 39 250 0.0 0.0 0.00 0.00 0.00 88 1004.5
20260509103036 39 250 0.0 0.0 0.00 0.00 0.00 87 1004.6
20260509101537 40 250 0.0 0.0 0.00 0.00 0.00 86 1004.7
20260509100033 40 250 0.0 0.0 0.00 0.00 0.00 85 1004.6
20260509094540 41 250 0.0 0.0 0.00 0.00 0.00 85 1004.5
20260509093028 42 250 0.0 0.0 0.00 0.00 0.00 84 1004.4
20260509091526 43 250 0.0 0.0 0.00 0.00 0.00 84 1004.5
20260509090049 43 250 0.0 0.0 0.00 0.00 0.00 84 1004.5
20260509084524 44 250 0.0 0.0 0.00 0.00 0.00 83 1004.5
20260509083038 45 250 0.0 0.0 0.00 0.00 0.00 82 1004.4
20260509081525 45 250 0.0 0.0 0.00 0.00 0.00 82 1004.2
20260509080014 46 250 0.0 0.0 0.00 0.00 0.00 80 1004.2
20260509074524 47 250 0.0 0.0 0.00 0.00 0.00 78 1004.1
20260509073008 49 250 0.0 0.0 0.00 0.00 0.00 78 1004.0
20260509071505 50 250 0.0 0.0 0.00 0.00 0.00 75 1004.0
20260509070101 51 250 0.0 0.0 0.00 0.00 0.00 73 1004.2
20260509064556 52 250 0.0 0.0 0.00 0.00 0.00 72 1004.3
20260509063112 53 250 0.0 1.0 0.00 0.00 0.00 70 1004.4
20260509061556 54 250 0.0 0.0 0.00 0.00 0.00 66 1004.3
20260509060052 55 250 0.0 0.0 0.00 0.00 0.00 63 1004.2
20260509054543 57 250 0.0 1.0 0.00 0.00 0.00 60 1004.6
20260509053045 58 250 0.0 2.0 0.00 0.00 0.00 59 1004.5
20260509051542 59 225 0.0 2.0 0.00 0.00 0.00 55 1004.6
20260509050048 60 226 0.0 1.0 0.00 0.00 0.00 51 1004.3
20260509044535 62 224 0.0 5.0 0.00 0.00 0.00 48 1004.2
20260509043041 63 221 0.0 3.0 0.00 0.00 0.00 45 1004.2
20260509041530 65 194 0.0 6.0 0.00 0.00 0.00 42 1004.3
20260509040030 66 286 1.0 4.0 0.00 0.00 0.00 40 1004.1
20260509034530 67 240 0.0 6.0 0.00 0.00 0.00 40 1004.0
20260509033036 67 238 3.0 10.0 0.00 0.00 0.00 39 1004.3
20260509031531 67 251 4.0 13.0 0.00 0.00 0.00 40 1004.2